Tirane, Albania

3:13 PM CET on December 05, 2016 (GMT +0100)
Tirane

Weather History for 13615 - December, 2013

Change the Weather History Date:

Saturday, December 7, 2013

  Actual Average Record
Temperature  
Mean Temperature 42 °F -  
Max Temperature 55 °F - - ()
Min Temperature 30 °F - - ()
Degree Days  
Heating Degree Days 22    
Moisture  
Dew Point 25 °F    
Average Humidity 53    
Maximum Humidity 93    
Minimum Humidity 16    
Precipitation  
Precipitation 0.00 in - - ()
Sea Level Pressure  
Sea Level Pressure 30.11 in    
Wind  
Wind Speed 5 mph ()    
Max Wind Speed 14 mph    
Max Gust Speed -    
Visibility 5.9 miles    
Events Fog , Thunderstorm    
T = Trace of Precipitation, MM = Missing Value Source: Averaged Metar Reports

Daily Weather History Graph

Daily Weather History Graph

Search for Another Location

Airport or City:

Trip Planner

Search our weather history database for the weather conditions in past years. The results will help you decide how hot, cold, wet, or windy it might be!

Date:

Astronomy

Dec. 07, 2013 Rise Set
Actual Time 6:53 AM CET 4:11 PM CET
Civil Twilight 6:22 AM CET 4:42 PM CET
Nautical Twilight 5:47 AM CET 5:17 PM CET
Astronomical Twilight 5:14 AM CET 5:50 PM CET
Moon 10:25 AM CET (12/7) 9:34 PM CET (12/7)
Length of Visible Light 10h 19m
Length of Day
9h 17m
Waxing Crescent, 26% of the Moon is Illuminated
Dec 7
Waxing Crescent
Dec 9
First Quarter
Dec 17
Full
Dec 25
Last Quarter
Jan 1
New

Hourly Weather History & Observations

Time (CET) Temp. Windchill Dew Point Humidity Pressure Visibility Wind Dir Wind Speed Gust Speed Precip Events Conditions
12:20 AM 44.6 °F 42.2 °F 42.8 °F 93% 29.89 in - South 4.6 mph - N/A   Mostly Cloudy
12:50 AM 46.4 °F 44.3 °F 44.6 °F 93% 29.89 in 5.0 mi SSW 4.6 mph - N/A   Mostly Cloudy
1:00 AM 47 °F - 44 °F 86% 29.89 in 4 mi North 4.5 mph - -   Scattered Clouds
1:20 AM 46.4 °F 44.3 °F 44.6 °F 93% 29.89 in 5.0 mi NNE 4.6 mph - N/A Thunderstorm Mostly Cloudy
1:50 AM 46.4 °F 44.3 °F 44.6 °F 93% 29.89 in 2.5 mi NW 4.6 mph - N/A   Mostly Cloudy
2:20 AM 42.8 °F 40.1 °F 41.0 °F 93% 29.89 in 0.5 mi NNW 4.6 mph - N/A Fog Patches of Fog
2:50 AM 44.6 °F 40.7 °F 39.2 °F 81% 29.89 in 6.2 mi NNW 6.9 mph - N/A   Scattered Clouds
3:20 AM 44.6 °F 41.4 °F 37.4 °F 76% 29.89 in 6.2 mi NNW 5.8 mph - N/A   Mostly Cloudy
3:50 AM 44.6 °F 40.2 °F 35.6 °F 71% 29.92 in 6.2 mi NW 8.1 mph - N/A   Mostly Cloudy
4:00 AM 45 °F - 36 °F 62% 29.91 in 44 mi NW 6.7 mph - -   Mostly Cloudy
4:20 AM 44.6 °F 43.1 °F 35.6 °F 71% 29.89 in 6.2 mi North 3.5 mph - N/A   Mostly Cloudy
4:50 AM 42.8 °F 38.6 °F 33.8 °F 70% 29.92 in 6.2 mi NW 6.9 mph - N/A   Partly Cloudy
5:20 AM 41.0 °F - 35.6 °F 81% 29.92 in 6.2 mi East 2.3 mph - N/A   Scattered Clouds
5:50 AM 39.2 °F - 33.8 °F 81% 29.92 in 6.2 mi Calm Calm - N/A   Partly Cloudy
6:20 AM 39.2 °F 35.0 °F 33.8 °F 81% 29.95 in 6.2 mi Variable 5.8 mph - N/A   Scattered Clouds
6:50 AM 37.4 °F - 32.0 °F 81% 29.98 in 6.2 mi Variable 2.3 mph - N/A   Partly Cloudy
7:20 AM 39.2 °F 37.0 °F 32.0 °F 75% 29.98 in 6.2 mi NNW 3.5 mph - N/A   Partly Cloudy
7:50 AM 41.0 °F 39.0 °F 32.0 °F 70% 30.01 in - NE 3.5 mph - N/A   Clear
8:20 AM 44.6 °F - 32.0 °F 61% 30.04 in - Calm Calm - N/A   Clear
8:50 AM 46.4 °F 42.9 °F 32.0 °F 57% 30.04 in - NW 6.9 mph - N/A   Clear
9:20 AM 50.0 °F - 30.2 °F 47% 30.06 in - NW 5.8 mph - N/A   Clear
9:50 AM 51.8 °F - 26.6 °F 38% 30.09 in - Variable 1.2 mph - N/A   Clear
10:00 AM 51 °F - 28 °F 29% 30.10 in 40 mi NNW 4.5 mph - -  
10:20 AM 53.6 °F - 26.6 °F 35% 30.09 in - Variable 2.3 mph - N/A   Clear
10:50 AM 55.4 °F - 23.0 °F 29% 30.09 in - East 2.3 mph - N/A   Clear
11:20 AM 53.6 °F - 19.4 °F 26% 30.09 in - East 8.1 mph - N/A   Clear
11:50 AM 53.6 °F - 17.6 °F 24% 30.09 in - ENE 11.5 mph - N/A   Clear
12:20 PM 55.4 °F - 15.8 °F 21% 30.12 in - NE 10.4 mph - N/A   Clear
12:50 PM 53.6 °F - 10.4 °F 18% 30.12 in - NE 9.2 mph - N/A   Clear
1:20 PM 53.6 °F - 14.0 °F 21% 30.12 in - North 9.2 mph - N/A   Clear
1:50 PM 53.6 °F - 14.0 °F 21% 30.12 in - NNW 12.7 mph - N/A   Clear
2:20 PM 51.8 °F - 14.0 °F 22% 30.15 in - NNW 12.7 mph - N/A   Clear
2:50 PM 51.8 °F - 12.2 °F 21% 30.15 in - NNW 13.8 mph - N/A   Clear
3:20 PM 50.0 °F - 14.0 °F 24% 30.18 in - NNW 11.5 mph - N/A   Clear
3:50 PM 48.2 °F - 14.0 °F 25% 30.18 in - NNW 11.5 mph - N/A   Clear
4:00 PM 46 °F - 15 °F 16% 30.21 in 37 mi NNW 8.9 mph - -  
4:20 PM 42.8 °F 38.0 °F 17.6 °F 36% 30.21 in - NW 8.1 mph - N/A   Clear
4:50 PM 44.6 °F 42.2 °F 14.0 °F 29% 30.21 in - North 4.6 mph - N/A   Clear
5:20 PM 41.0 °F 38.0 °F 14.0 °F 33% 30.21 in - North 4.6 mph - N/A   Clear
5:50 PM 39.2 °F 35.9 °F 17.6 °F 42% 30.24 in - WNW 4.6 mph - N/A   Clear
6:20 PM 37.4 °F - 17.6 °F 45% 30.24 in - Calm Calm - N/A   Clear
6:50 PM 39.2 °F 35.0 °F 15.8 °F 39% 30.27 in - NNW 5.8 mph - N/A   Clear
7:00 PM 36 °F - 18 °F 35% 30.29 in 15 mi WNW 4.5 mph - -  
7:20 PM 37.4 °F 32.8 °F 17.6 °F 45% 30.27 in - NW 5.8 mph - N/A   Clear
7:50 PM 39.2 °F - 15.8 °F 39% 30.30 in - Variable 2.3 mph - N/A   Clear
8:20 PM 35.6 °F 31.7 °F 19.4 °F 52% 30.30 in - North 4.6 mph - N/A   Clear
8:50 PM 33.8 °F 28.6 °F 17.6 °F 52% 30.30 in - NW 5.8 mph - N/A   Clear
9:20 PM 33.8 °F 28.6 °F 17.6 °F 52% 30.33 in - NNW 5.8 mph - N/A   Clear
9:50 PM 33.8 °F 29.6 °F 17.6 °F 52% 30.33 in - North 4.6 mph - N/A   Clear
10:00 PM 34 °F - 18 °F 39% 30.35 in 34 mi NNW 6.7 mph - -  
10:20 PM 33.8 °F 29.6 °F 19.4 °F 56% 30.33 in - SE 4.6 mph - N/A   Clear
10:50 PM 30.2 °F 24.3 °F 21.2 °F 69% 30.36 in - South 5.8 mph - N/A   Clear
11:20 PM 30.2 °F 26.7 °F 21.2 °F 69% 30.36 in - ESE 3.5 mph - N/A   Clear
11:50 PM 30.2 °F - 21.2 °F 69% 30.36 in - SSE 2.3 mph - N/A   Clear